Dewpoint
-19 -17 -19 -4 3 1 2 5 4 6 7 7 8 9 9 10 11 14 14 14 14 13 14 15 13 13 13 12 12 13 13 13 14 14 14 14 13 13 13 13 13 12 12 11 7 6 9 12 14
-20 -15 -6 1 3 -1 1 3 6 5 8 7 7 8 6 9 12 14 13 14 13 13 13 14 11 10 10 11 11 11 11 12 11 12 12 12 12 13 13 13 13 13 13 12 12 12 8 9 11
-18 -7 -0 1 -1 1 1 3 5 7 6 2 4 6 5 7 10 11 13 14 13 13 13 9 6 6 8 9 9 9 8 8 8 8 8 8 8 9 12 13 13 13 13 13 13 12 12 12 9
-1 1 0 1 -2 1 1 2 2 3 2 2 3 3 7 9 10 11 13 13 12 12 11 6 5 4 5 5 5 5 5 5 5 5 5 6 6 7 9 10 12 13 13 12 12 12 13 13 12
-3 1 -3 -2 0 -1 0 -0 -0 -1 -1 -0 1 3 6 8 9 11 12 12 11 9 8 5 4 3 3 2 2 1 1 -0 -1 -2 -3 -3 -3 -2 1 4 6 9 10 11 12 12 12 12 12
-1 -0 -3 -2 -2 -1 -2 -2 -3 -3 -3 -2 -0 1 5 8 8 10 11 11 9 8 6 5 4 3 2 1 1 0 -0 -1 -2 -2 -3 -4 -5 -5 -6 -6 -5 -0 4 6 8 9 10 11 11
1 -4 -6 -8 -1 -0 -2 -3 -4 -4 -4 -3 -1 -1 4 7 8 7 10 9 8 7 6 6 5 2 1 0 -1 -1 -1 -2 -4 -6 -8 -10 -10 -9 -8 -8 -9 -9 -7 -5 1 5 7 8 9
-1 -1 -3 -4 -1 -1 -2 -2 -2 -3 -3 -2 -2 -2 1 3 5 3 5 7 7 6 6 5 4 2 1 1 -3 -3 -3 -4 -8 -9 -10 -10 -11 -12 -12 -11 -12 -12 -11 -11 -9 -6 -3 4 6
-2 -2 -7 -4 -3 -1 -2 -1 -1 -1 -2 -2 -2 -1 1 3 2 4 7 7 7 7 6 5 0 2 -2 -2 -3 -5 -5 -6 -8 -8 -9 -9 -8 -9 -10 -10 -11 -10 -10 -10 -10 -11 -10 -7 -4
-2 -3 -2 -1 -1 -2 -2 -2 -2 -2 -2 -3 -2 -2 -3 -2 0 3 3 3 2 1 -1 -4 -4 -4 -2 -3 -4 -4 -4 -6 -7 -7 -7 -7 -7 -7 -8 -6 -8 -8 -9 -8 -6 -6 -6 -8 -9
-1 -1 -0 -1 -1 -2 -1 -2 -2 -3 -3 -4 -3 -2 -5 -5 -4 -3 -3 -2 -1 -5 -9 -7 -9 -9 -7 -4 -5 1 -3 -5 -6 -6 -6 -6 -6 -6 -4 -2 -1 -5 -4 -2 -4 -4 3 4 3
-0 -1 -1 -2 -4 -3 -2 -4 -5 -4 -2 -3 -6 -6 -6 -6 -4 -3 -5 -4 -7 -9 -10 -8 -7 -7 -8 -7 -5 -3 -3 -5 -4 -6 -6 -6 -5 -4 -2 -4 -5 -6 -5 -6 -5 -6 -2 -0 2
-2 -3 -5 -6 -6 -6 -6 -6 -6 -6 -5 -6 -7 -9 -5 -4 -3 -1 -5 -7 -9 -10 -11 -11 -8 -7 -7 -7 -5 -4 -5 -5 -5 -4 -4 -4 -5 -5 -6 -8 -9 -8 -8 -7 -9 -9 -6 -3 -3
-3 -5 -6 -6 -6 -6 -7 -8 -7 -8 -7 -7 -7 -5 -4 -2 -1 1 -2 -4 -4 -7 -8 -7 -7 -6 -5 -4 -4 -4 -4 -3 -4 -6 -7 -7 -8 -8 -9 -9 -10 -14 -7 -4 -3 -4 -5 -7 -3
-6 -5 -6 -6 -6 -7 -7 -7 -7 -7 -7 -7 -7 -4 -3 -2 -1 1 -6 -8 -9 -8 -7 -6 -6 -6 -5 -4 -4 -5 -6 -7 -6 -6 -5 -5 -5 -7 -9 -10 -11 -12 -9 -5 -2 -2 -1 -3 -2
-7 -6 -5 -5 -7 -6 -7 -9 -9 -7 -8 -7 -7 -5 -4 -2 -1 0 -5 -6 -7 -7 -8 -8 -8 -8 -7 -7 -8 -7 -7 -6 -5 -4 -3 -3 -4 -5 -6 -10 -11 -11 -15 -2 0 -2 -2 -1 0
-7 -4 -7 -4 -6 -7 -7 -7 -10 -8 -8 -9 -7 -6 -4 -3 -1 -0 -1 -5 -6 -6 -5 -5 -5 -4 -5 -5 -5 -5 -4 -4 -3 -2 -2 -3 -4 -5 -5 -9 -10 -9 -16 -4 1 1 2 2 3
-2 -8 -9 -8 -5 -7 -8 -9 -11 -10 -9 -9 -9 -7 -5 -4 -2 -1 -1 -6 -8 -8 -8 -7 -4 -5 -7 -8 -8 -3 1 1 1 -1 -2 -3 -4 -4 -4 -8 -10 -11 -11 -4 1 2 3 3 4
-7 -7 -7 -10 -5 -6 -9 -9 -10 -12 -11 -10 -9 -7 -6 -4 -2 -2 -4 -6 -9 -9 -9 -8 -8 -7 -5 -4 -4 -3 -1 0 1 3 -2 -2 -2 -4 -4 -6 -8 -10 -11 -8 -2 1 3 4 4
-7 -7 -9 -8 -6 -6 -10 -10 -12 -13 -13 -12 -10 -9 -6 -4 -3 -4 -6 -4 -5 -5 -4 -4 -3 -3 -3 -3 -3 -3 -4 -4 -6 -7 -5 -2 -2 -3 -5 -5 -8 -10 -12 -10 -3 -1 2 4 4
-4 -5 -5 -3 -5 -7 -8 -11 -10 -6 -6 -6 -8 -9 -5 -4 -5 -7 -4 -2 -3 -4 -4 -4 -4 -4 -4 -3 -3 -3 -3 -1 -0 1 2 0 -3 -4 -3 -5 -8 -10 -12 -14 -7 -3 -0 3 3
-2 -2 -3 -3 -2 0 -8 -3 -14 -9 -6 -5 -5 -4 -4 -4 -6 -5 -3 -2 -2 -3 -6 -6 -6 -5 -4 -3 -3 -4 -4 -3 -1 -2 -4 -6 -6 -5 -4 -5 -8 -9 -12 -13 -13 -6 -2 1 2
1 -2 -2 -1 -1 0 -5 0 -9 -9 -8 -6 -6 -5 -5 -6 -6 -5 -2 -5 -5 -5 -5 -5 -4 -3 -3 -4 -5 -6 -6 -5 -3 -0 -2 -4 -4 -5 -5 -6 -7 -8 -10 -12 -15 -14 -7 0 -1
-2 -2 -4 -1 -0 8 -3 -3 -3 -9 -7 -7 -6 -5 -5 -6 -6 -5 -3 -6 -2 -3 -3 -3 -3 -3 -5 -6 -6 -6 -6 -6 -5 -3 -2 -0 1 -2 -4 -6 -7 -8 -9 -10 -13 -14 -8 -0 1
-3 3 9 10 9 4 1 0 -9 -8 -7 -6 -6 -5 -6 -5 -5 -5 -4 -2 -2 -3 -3 -3 -4 -6 -6 -7 -6 -6 -6 -6 -5 -4 -3 -3 -2 1 -2 -6 -6 -7 -8 -9 -11 -12 -13 -10 -3
-1 4 11 10 3 2 -4 4 1 -7 -7 -5 -4 -5 -5 -5 -6 -4 -4 -1 -2 -3 -4 -4 -5 -6 -7 -7 -7 -7 -7 -5 -5 -5 -4 -5 -4 -4 -4 -5 -6 -7 -8 -8 -9 -10 -11 -11 -9
1 4 -5 3 -4 -0 0 -2 -8 -9 -8 -7 -3 -4 -4 -4 -6 -4 -2 -1 -2 -3 -3 -4 -5 -6 -7 -8 -8 -8 -8 -7 -5 -5 -4 -4 -5 -5 -5 -4 -5 -6 -7 -8 -8 -8 -8 -8 -7
-2 -6 5 5 6 7 0 -5 10 2 -5 -7 -3 -4 -4 -6 -5 -3 -2 -1 -2 -3 -3 -4 -5 -5 -6 -8 -10 -11 -9 -7 -7 -7 -5 -4 -4 -4 -4 -4 -4 -4 -4 -5 -6 -7 -7 -7 -7
-3 0 -2 -0 -2 7 4 9 6 4 3 -5 -5 -4 -3 -5 -4 -4 -3 -2 -2 -4 -3 -4 -4 -4 -5 -7 -8 -10 -13 -11 -8 -7 -6 -5 -4 -4 -4 -4 -4 -4 -4 -5 -5 -6 -6 -6 -6
-3 -2 -6 4 6 0 2 6 -3 -2 -4 -4 -4 -4 -3 -3 -4 -3 -2 -3 -3 -1 -1 -3 -3 -4 -4 -5 -7 -9 -12 -17 -14 -11 -9 -8 -7 -7 -6 -6 -5 -5 -5 -4 -5 -5 -5 -5 -6
Wind_Speed
4 1 3 1 4 5 2 4 3 7 6 3 3 6 10 12 8 4 6 5 7 4 2 5 4 5 6 6 5 6 7 8 9 10 11 11 12 12 12 12 12 12 11 11 10 10 11 11 10
4 4 3 2 5 7 6 6 8 5 8 6 4 1 1 10 10 9 6 4 5 4 4 5 2 5 6 6 6 7 8 9 10 11 11 11 12 12 12 12 13 13 13 13 13 13 12 12 11
4 5 4 3 5 6 3 8 10 8 6 3 3 3 3 7 5 4 5 6 5 3 2 2 3 4 5 6 6 7 8 9 10 11 12 12 13 13 13 13 12 12 13 13 14 15 15 14 13
3 3 4 5 8 4 4 7 10 10 5 2 2 7 6 4 2 4 6 6 3 2 2 3 4 5 5 6 7 8 9 11 12 13 13 14 14 15 15 15 15 14 13 13 13 13 14 15 16
5 5 6 8 4 3 4 7 6 5 6 5 2 5 4 3 4 5 4 4 3 1 1 5 5 5 6 7 8 10 11 12 13 14 15 16 16 16 17 16 16 17 17 17 16 15 14 14 14
5 6 6 9 7 5 6 5 5 4 5 4 3 4 4 3 5 4 4 2 2 2 4 6 7 8 9 9 11 11 12 13 14 16 18 19 19 20 20 20 20 20 20 20 20 19 18 16 16
5 7 9 10 9 8 6 6 6 6 6 4 3 2 3 5 3 3 3 3 2 3 5 6 7 12 12 12 13 14 14 15 17 19 20 20 21 20 21 21 22 22 23 23 22 22 22 21 19
4 5 5 8 10 6 9 8 4 4 4 4 1 3 6 3 2 4 4 2 4 4 6 6 8 12 11 15 15 15 15 16 17 17 17 18 18 19 19 20 21 22 23 24 24 25 25 24 23
2 5 8 6 8 8 10 7 4 2 4 4 2 2 2 0 1 2 3 4 5 6 7 9 11 11 14 13 17 16 14 15 16 17 18 17 16 18 20 21 21 22 23 23 24 24 25 26 25
4 6 2 7 8 6 10 7 7 5 6 4 5 4 2 1 1 2 4 6 7 8 10 13 13 13 14 13 13 13 14 15 17 19 19 19 19 20 20 20 21 21 21 21 22 22 22 23 22
0 3 6 5 5 5 7 6 4 4 6 4 6 5 2 2 2 3 5 6 9 13 15 16 15 15 14 13 12 9 12 16 18 19 19 19 18 18 16 16 15 20 19 17 18 18 13 13 15
3 4 1 3 4 3 5 2 3 6 1 6 3 3 3 4 3 6 7 8 10 11 12 13 12 12 12 12 11 11 12 16 15 18 19 18 17 16 14 16 18 18 18 20 18 17 14 14 14
4 6 7 6 6 4 1 3 3 6 6 4 3 3 3 3 2 3 3 5 6 7 7 6 5 7 7 7 9 11 13 14 14 14 15 15 16 17 17 17 19 17 17 17 18 17 16 15 13
5 9 9 5 3 3 3 4 1 9 8 5 4 4 3 3 2 1 0 3 5 7 7 6 4 3 4 5 8 10 11 12 12 13 14 16 17 17 18 17 18 20 16 16 16 15 17 17 14
10 7 5 2 1 2 3 7 10 7 9 8 6 5 5 5 4 3 2 2 4 5 6 6 5 5 5 6 9 10 11 11 11 13 16 17 18 18 17 18 19 19 17 17 15 14 14 15 14
4 3 4 5 2 3 4 6 8 10 11 9 8 7 7 7 6 4 2 1 3 4 4 4 5 5 6 7 9 10 11 12 14 16 17 18 19 18 18 18 18 18 18 15 15 14 14 13 12
4 4 7 5 1 3 6 7 7 12 11 10 10 10 10 10 8 5 3 2 3 4 5 6 7 8 9 11 12 13 15 16 15 15 16 17 18 18 18 17 17 16 18 14 15 14 13 13 11
4 8 4 6 4 4 8 15 12 15 16 15 12 13 12 12 9 6 3 4 5 5 6 7 8 10 11 12 13 13 14 15 13 14 15 17 17 18 17 16 16 16 15 13 13 14 13 12 11
4 5 6 2 2 5 8 14 13 14 17 19 18 15 14 13 9 5 3 3 4 4 5 5 6 7 9 11 12 12 12 14 14 13 17 18 18 18 17 16 16 15 14 13 13 13 13 10 10
3 6 7 3 2 4 11 18 20 19 16 16 18 17 16 14 9 5 2 1 2 3 4 4 5 8 12 15 17 17 17 16 16 16 16 16 16 18 16 15 16 15 14 12 11 10 12 8 8
2 5 4 4 10 4 11 13 6 2 1 4 9 15 14 13 10 6 3 2 3 4 5 7 9 12 15 17 20 20 18 18 16 14 16 16 17 17 16 15 15 14 13 12 12 10 9 9 6
4 2 3 5 7 4 4 6 8 6 2 3 7 10 12 10 7 5 3 1 3 6 9 9 12 14 17 19 21 20 19 16 14 15 15 15 16 15 15 15 15 14 13 11 10 9 9 8 7
2 3 4 3 4 4 6 3 3 3 3 6 11 13 11 9 7 5 3 3 5 7 9 10 12 15 18 20 20 20 17 16 15 14 14 14 13 14 15 15 14 14 14 12 12 10 7 7 10
3 3 2 2 1 3 3 2 6 1 2 1 12 15 14 11 8 6 5 4 4 7 8 10 12 15 18 19 19 18 17 16 15 12 13 11 11 12 14 14 14 13 13 12 12 11 9 7 7
0 3 3 1 1 2 2 4 9 3 2 1 6 13 14 11 7 7 5 4 4 5 8 10 13 14 15 16 17 17 17 15 13 12 11 11 10 10 12 14 14 13 13 13 13 11 10 9 8
1 4 2 4 3 3 1 6 2 3 1 4 5 11 13 11 9 9 7 5 4 5 8 10 11 13 14 15 15 16 16 15 13 11 12 11 11 12 13 13 13 13 13 12 12 13 12 11 10
3 3 1 2 2 3 3 5 9 3 6 7 8 11 12 11 10 9 8 7 6 7 8 10 11 12 14 15 15 14 15 14 13 12 12 12 11 12 13 13 13 13 13 13 13 13 12 11 12
3 1 1 2 3 4 5 6 4 4 6 8 8 11 12 12 12 11 9 9 9 10 10 10 11 13 14 14 14 15 15 14 14 12 11 12 12 13 13 13 13 13 13 13 13 13 13 13 12
3 3 4 2 2 3 4 4 5 7 6 7 9 11 13 15 14 11 10 10 11 12 11 9 11 13 14 15 16 16 15 15 13 12 11 11 12 12 12 13 13 13 13 13 14 14 14 15 15
5 5 6 3 4 3 3 8 5 7 9 10 7 7 11 14 17 16 15 14 13 13 11 10 11 13 15 16 17 16 16 15 14 13 12 11 11 11 11 11 12 12 13 14 14 15 15 16 16
Wind_Direction
240 243 138 121 234 235 199 140 75 130 134 53 46 338 50 33 10 42 135 112 109 116 73 335 301 316 329 326 322 314 315 315 315 316 317 316 315 315 310 305 300 297 297 298 295 283 270 287 276
220 138 129 246 259 218 165 136 168 104 99 98 97 81 113 77 65 99 124 121 108 126 107 255 308 315 313 315 316 315 313 311 310 309 309 310 311 311 313 312 307 305 299 292 290 289 283 278 276
185 155 222 226 248 269 112 179 116 123 119 110 125 39 29 84 85 108 121 124 120 119 53 301 324 332 330 324 319 315 312 310 309 311 312 311 309 306 305 303 302 299 296 297 293 288 286 285 278
146 248 245 228 231 61 28 129 139 138 121 109 85 97 94 86 105 104 135 126 121 109 113 336 332 330 320 313 314 316 317 319 319 318 316 315 312 311 308 303 297 290 284 286 293 296 291 285 280
169 249 216 228 169 131 89 124 154 158 129 139 144 112 91 101 108 114 127 128 148 159 68 309 318 316 317 319 319 317 314 312 311 311 310 308 305 302 300 298 296 291 288 284 281 279 281 285 287
213 271 218 207 174 146 135 149 162 163 128 122 141 139 95 129 111 143 154 169 186 210 279 299 306 312 315 315 313 313 312 309 306 307 307 306 304 302 300 298 294 291 288 284 282 279 275 271 271
263 225 232 243 156 172 155 156 178 159 149 115 112 206 103 133 164 175 168 191 210 261 282 304 304 309 306 305 309 308 306 306 309 310 310 308 305 301 298 296 292 292 290 286 282 278 276 274 269
256 273 215 223 181 170 153 144 142 183 132 127 138 169 163 145 261 247 248 227 255 273 292 294 297 297 297 306 302 304 305 310 316 319 322 321 317 314 310 304 303 297 292 288 284 281 276 272 271
239 241 216 192 205 137 161 154 150 175 157 147 133 104 115 348 320 248 261 271 271 289 294 291 289 285 290 291 300 303 307 311 319 326 325 325 323 320 320 314 311 306 301 294 288 282 278 275 270
250 240 19 15 39 159 163 179 147 172 167 174 155 142 25 22 326 268 271 276 280 285 284 287 284 283 285 289 294 300 305 313 319 321 320 321 319 318 317 316 315 311 308 302 295 288 283 278 277
236 303 107 64 61 125 145 146 160 197 207 201 214 200 305 7 334 305 295 303 295 290 289 281 284 281 280 280 291 294 308 312 318 320 321 323 322 320 323 318 313 315 317 312 302 298 296 284 271
168 73 82 117 70 130 152 144 180 222 82 157 167 233 256 298 300 295 295 296 300 296 288 282 285 286 281 279 284 294 307 314 317 321 326 328 327 329 323 321 315 316 314 308 307 300 292 289 285
118 126 96 99 91 67 162 199 295 226 191 194 222 242 251 273 278 311 302 323 334 339 336 320 293 289 287 281 287 297 306 315 320 325 327 329 333 328 325 326 325 317 315 310 304 301 295 288 283
124 123 119 92 109 75 299 215 241 212 195 210 226 223 230 215 177 143 41 36 26 22 17 13 1 341 321 302 308 312 315 323 326 328 331 336 332 327 325 328 320 314 311 311 305 302 298 294 287
135 112 131 118 6 175 324 228 230 196 195 212 215 204 193 192 167 167 164 62 40 30 25 15 6 352 336 324 324 320 318 324 329 331 334 334 330 328 329 327 321 315 314 312 308 307 301 297 288
187 188 195 116 333 167 261 277 160 182 194 208 212 207 198 188 182 170 188 65 26 15 4 358 348 342 334 329 327 319 319 320 319 325 328 329 328 326 327 326 324 322 322 318 313 311 309 299 294
195 257 222 153 95 284 229 288 140 193 206 216 217 220 205 196 187 191 218 271 312 319 318 321 324 323 323 321 319 313 312 311 309 318 320 326 329 329 325 327 326 323 327 324 318 317 315 310 306
282 237 212 262 77 266 250 259 256 210 228 234 239 225 211 202 193 192 203 271 299 304 310 314 316 316 320 325 326 321 312 315 308 307 312 322 326 329 328 329 329 326 329 329 315 318 319 314 310
324 306 292 95 37 294 260 273 275 263 240 239 240 222 213 205 194 191 215 283 304 318 329 326 328 342 352 346 333 325 304 295 301 299 307 313 321 329 330 329 330 327 325 324 326 325 327 329 312
311 282 274 267 37 323 301 287 276 268 271 262 242 226 213 196 194 190 190 191 314 322 320 334 350 346 343 340 334 330 321 316 312 306 302 303 314 322 329 327 327 326 324 324 324 328 327 331 330
348 303 335 299 323 242 299 271 233 144 276 292 235 211 201 198 188 184 182 242 302 302 305 315 322 327 329 328 327 328 323 323 324 321 307 309 312 315 320 323 325 323 324 327 326 325 333 325 350
231 13 301 327 349 295 358 285 279 138 154 197 172 178 190 189 186 186 195 234 292 292 303 310 317 321 322 325 323 322 318 315 311 299 298 302 307 310 315 320 323 322 322 322 323 323 321 324 312
34 355 355 2 296 329 183 245 229 126 202 199 189 185 185 188 189 197 205 245 293 307 315 320 323 321 322 324 321 320 319 314 310 305 307 309 307 309 315 320 323 324 322 320 318 322 315 309 314
98 318 331 310 279 259 103 269 269 107 90 191 190 185 182 184 195 208 225 277 298 320 329 327 327 326 324 325 326 325 324 320 316 310 303 304 299 304 312 320 323 323 320 318 317 317 318 307 293
85 40 338 310 258 283 351 256 259 148 177 211 240 192 187 184 199 215 228 245 285 310 319 326 332 334 334 334 331 330 329 325 319 314 306 302 303 300 308 316 319 320 319 317 314 313 311 310 300
144 166 211 271 280 349 249 237 252 132 150 187 224 198 198 205 204 206 220 239 265 293 314 331 337 340 342 341 339 338 336 332 320 312 307 304 299 297 302 310 312 315 316 316 315 317 318 312 309
194 223 23 79 103 263 246 266 252 199 222 205 195 199 212 222 215 214 220 233 260 290 307 324 334 338 340 342 342 340 339 338 332 319 309 306 303 300 301 302 305 310 313 314 312 312 311 306 304
257 87 156 161 285 265 241 262 244 204 182 192 200 212 219 220 216 218 224 238 261 280 294 309 326 331 336 337 339 343 344 341 338 331 319 309 304 303 303 302 303 306 306 308 308 309 310 306 304
157 211 214 303 242 268 297 263 199 201 192 192 209 223 228 224 220 216 225 240 256 271 280 296 316 327 330 331 330 331 333 338 338 334 328 318 313 309 307 306 305 304 303 303 302 303 302 300 301
251 234 210 229 189 230 300 271 205 184 191 192 203 241 248 240 231 237 246 262 266 263 262 287 308 322 330 330 327 323 321 324 326 329 331 329 323 315 310 308 308 307 306 305 303 302 299 298 298
Height
1514 1514 1515 1516 1518 1509 1507 1512 1506 1511 1514 1520 1521 1519 1520 1523 1525 1533 1537 1538 1539 1540 1540 1537 1537 1536 1536 1536 1535 1535 1535 1534 1533 1533 1532 1531 1531 1530 1529 1528 1528 1527 1527 1526 1526 1526 1525 1525 1524
1514 1515 1516 1516 1516 1511 1507 1507 1510 1511 1518 1521 1523 1523 1522 1529 1532 1535 1538 1538 1540 1540 1541 1537 1537 1536 1536 1535 1535 1535 1534 1533 1532 1531 1531 1530 1529 1529 1528 1527 1527 1526 1525 1525 1524 1524 1524 1523 1523
1515 1515 1516 1510 1508 1508 1505 1507 1511 1519 1522 1522 1523 1525 1526 1532 1535 1537 1538 1539 1540 1540 1540 1536 1536 1536 1535 1535 1534 1533 1532 1532 1530 1530 1529 1528 1527 1527 1526 1525 1524 1524 1523 1523 1522 1522 1522 1522 1521
1516 1517 1516 1511 1507 1511 1507 1508 1516 1520 1523 1524 1524 1526 1532 1533 1536 1537 1537 1539 1541 1540 1540 1537 1536 1536 1535 1534 1533 1532 1531 1531 1530 1529 1528 1527 1526 1525 1524 1523 1522 1522 1520 1520 1520 1519 1519 1519 1520
1516 1515 1508 1508 1509 1513 1511 1515 1517 1519 1521 1524 1525 1527 1531 1534 1534 1537 1538 1538 1541 1541 1538 1536 1536 1535 1534 1534 1533 1532 1531 1530 1528 1527 1526 1525 1523 1522 1521 1521 1520 1519 1518 1518 1517 1516 1516 1516 1517
1515 1513 1507 1510 1506 1513 1516 1519 1519 1519 1523 1527 1526 1528 1532 1533 1535 1536 1536 1538 1538 1539 1537 1536 1535 1534 1534 1533 1532 1531 1530 1528 1527 1525 1524 1522 1521 1520 1518 1518 1517 1516 1516 1515 1514 1513 1512 1512 1513
1512 1507 1503 1497 1507 1515 1515 1521 1520 1520 1523 1527 1528 1526 1534 1534 1533 1533 1535 1536 1536 1537 1536 1535 1534 1533 1532 1532 1530 1529 1528 1526 1525 1523 1521 1520 1518 1516 1515 1514 1512 1512 1512 1511 1510 1510 1509 1509 1508
1513 1507 1504 1500 1508 1511 1517 1520 1523 1523 1525 1528 1529 1525 1531 1534 1533 1532 1533 1534 1534 1535 1535 1535 1533 1532 1531 1529 1528 1527 1526 1525 1523 1521 1519 1517 1515 1513 1511 1510 1509 1508 1507 1506 1506 1505 1505 1504 1504
1512 1507 1502 1502 1502 1507 1518 1519 1523 1524 1526 1528 1529 1530 1532 1531 1531 1532 1534 1534 1534 1534 1534 1532 1531 1530 1529 1528 1526 1525 1525 1523 1521 1519 1517 1515 1513 1511 1509 1507 1506 1504 1503 1502 1501 1500 1500 1499 1499
1510 1503 1500 1510 1510 1512 1518 1519 1522 1524 1525 1528 1529 1530 1530 1530 1531 1532 1533 1533 1532 1532 1530 1529 1528 1527 1526 1525 1525 1524 1523 1522 1520 1518 1516 1514 1511 1509 1507 1504 1502 1500 1499 1498 1496 1495 1494 1494 1494
1512 1505 1512 1518 1518 1517 1521 1523 1523 1522 1524 1524 1527 1530 1530 1530 1530 1530 1530 1530 1529 1527 1526 1525 1524 1524 1524 1523 1523 1523 1521 1519 1518 1515 1513 1511 1509 1507 1505 1502 1500 1498 1496 1494 1493 1491 1491 1490 1489
1514 1516 1517 1521 1522 1521 1522 1524 1523 1523 1524 1525 1526 1528 1529 1530 1530 1528 1527 1526 1525 1524 1522 1521 1521 1521 1521 1521 1521 1521 1519 1518 1516 1513 1511 1509 1507 1504 1503 1501 1498 1496 1494 1491 1490 1488 1487 1486 1486
1513 1518 1520 1521 1523 1523 1523 1523 1523 1523 1524 1524 1525 1525 1527 1528 1527 1526 1526 1525 1523 1521 1520 1519 1519 1520 1520 1519 1519 1519 1518 1516 1514 1512 1510 1507 1505 1503 1500 1498 1496 1494 1491 1489 1486 1484 1483 1482 1482
1518 1519 1521 1522 1524 1524 1523 1522 1524 1521 1523 1524 1524 1524 1525 1526 1526 1526 1525 1524 1523 1521 1520 1519 1518 1518 1519 1518 1518 1517 1516 1514 1512 1510 1507 1505 1503 1500 1497 1495 1494 1492 1489 1487 1484 1481 1479 1478 1478
1519 1519 1520 1522 1524 1522 1525 1520 1519 1519 1521 1523 1523 1523 1523 1525 1524 1525 1524 1523 1522 1521 1520 1520 1519 1518 1518 1517 1516 1516 1514 1512 1510 1508 1505 1503 1500 1498 1495 1493 1491 1489 1486 1484 1481 1478 1476 1475 1474
1516 1515 1515 1523 1523 1524 1524 1508 1511 1518 1520 1520 1521 1521 1523 1523 1524 1524 1523 1522 1522 1522 1521 1520 1519 1518 1517 1516 1516 1515 1513 1511 1508 1506 1503 1500 1498 1496 1493 1491 1489 1486 1483 1481 1480 1476 1473 1472 1471
1513 1511 1512 1520 1525 1525 1521 1507 1510 1517 1518 1516 1518 1519 1521 1522 1522 1523 1522 1522 1522 1521 1520 1519 1518 1517 1516 1515 1514 1513 1510 1508 1506 1503 1501 1498 1496 1493 1491 1488 1486 1484 1481 1479 1478 1475 1473 1470 1469
1515 1511 1509 1509 1525 1522 1517 1510 1507 1511 1514 1512 1514 1516 1518 1520 1521 1522 1521 1521 1520 1519 1518 1517 1516 1516 1515 1513 1511 1510 1508 1506 1503 1500 1498 1496 1494 1492 1489 1487 1484 1482 1479 1478 1477 1475 1472 1470 1468
1520 1517 1514 1512 1529 1526 1511 1506 1502 1505 1505 1507 1509 1512 1515 1518 1520 1520 1519 1520 1519 1518 1517 1516 1515 1514 1513 1512 1510 1507 1506 1504 1501 1498 1495 1494 1492 1489 1487 1485 1483 1480 1478 1476 1475 1473 1471 1470 1468
1524 1522 1513 1517 1528 1526 1511 1506 1499 1499 1497 1500 1504 1509 1512 1515 1518 1518 1519 1519 1518 1517 1516 1515 1514 1513 1511 1510 1509 1504 1502 1500 1497 1495 1492 1491 1489 1487 1485 1484 1482 1479 1477 1475 1473 1471 1470 1470 1468
1530 1527 1526 1534 1527 1521 1522 1497 1489 1500 1501 1503 1502 1505 1511 1514 1515 1517 1517 1518 1517 1516 1515 1514 1512 1511 1509 1507 1506 1502 1499 1496 1493 1493 1490 1488 1487 1485 1484 1482 1480 1477 1475 1473 1472 1470 1469 1468 1467
1534 1542 1539 1535 1531 1523 1525 1516 1486 1492 1498 1503 1505 1508 1512 1514 1514 1515 1515 1516 1515 1515 1514 1511 1510 1509 1507 1504 1503 1500 1497 1493 1491 1490 1488 1486 1484 1482 1481 1480 1478 1476 1474 1472 1470 1469 1467 1466 1464
1538 1542 1541 1542 1539 1545 1523 1529 1482 1495 1497 1499 1501 1506 1509 1511 1513 1514 1514 1513 1514 1512 1511 1510 1508 1507 1504 1501 1500 1497 1493 1490 1488 1487 1485 1483 1482 1480 1479 1478 1476 1475 1473 1471 1469 1468 1466 1466 1464
1545 1542 1542 1542 1539 1541 1522 1524 1491 1486 1494 1496 1497 1501 1504 1508 1511 1512 1511 1511 1511 1510 1509 1508 1506 1504 1501 1498 1495 1493 1489 1487 1485 1484 1483 1482 1480 1478 1477 1475 1474 1473 1471 1470 1468 1467 1466 1465 1464
1544 1548 1547 1540 1547 1510 1543 1533 1487 1490 1497 1499 1497 1500 1503 1505 1508 1510 1510 1510 1509 1508 1507 1506 1503 1501 1499 1496 1493 1490 1487 1484 1482 1481 1480 1479 1477 1476 1474 1473 1472 1470 1469 1468 1467 1466 1464 1463 1463
1547 1553 1540 1533 1517 1509 1547 1523 1489 1494 1498 1499 1499 1499 1502 1504 1503 1505 1507 1507 1506 1506 1505 1503 1501 1499 1497 1493 1491 1488 1484 1481 1480 1478 1477 1475 1474 1473 1471 1470 1470 1468 1467 1466 1465 1464 1463 1462 1461
1548 1549 1547 1552 1561 1539 1505 1497 1487 1491 1495 1497 1498 1499 1501 1502 1503 1503 1504 1504 1504 1503 1502 1500 1499 1497 1494 1491 1489 1487 1483 1480 1477 1475 1474 1472 1471 1470 1468 1467 1467 1465 1464 1463 1462 1461 1460 1459 1459
1549 1548 1542 1544 1534 1524 1496 1492 1492 1493 1493 1493 1495 1497 1497 1498 1499 1500 1501 1501 1501 1500 1499 1498 1496 1494 1492 1489 1487 1484 1481 1479 1476 1474 1472 1470 1469 1467 1466 1464 1463 1462 1461 1460 1459 1458 1457 1456 1455
1547 1543 1545 1542 1534 1525 1511 1492 1491 1494 1492 1490 1492 1492 1493 1494 1495 1496 1497 1497 1497 1496 1496 1495 1494 1492 1490 1487 1485 1483 1480 1477 1475 1473 1470 1468 1467 1465 1464 1462 1461 1459 1458 1457 1456 1455 1454 1453 1452
1537 1532 1526 1527 1529 1533 1532 1510 1483 1487 1488 1489 1490 1491 1491 1492 1493 1494 1494 1494 1494 1493 1492 1492 1490 1489 1487 1485 1483 1481 1478 1476 1473 1471 1468 1466 1464 1462 1461 1459 1458 1456 1455 1454 1453 1452 1451 1450 1449